TimeEST,TemperatureF,Dew PointF,Humidity,Sea Level PressureIn,VisibilityMPH,Wind Direction,Wind SpeedMPH,Gust SpeedMPH,PrecipitationIn,Events,Conditions,WindDirDegrees,DateUTC
12:53 AM,39.0,37.9,96,30.16,10.0,SSE,4.6,-,0.04,,Overcast,160,2013-01-30 05:53:00
1:30 AM,39.2,37.4,93,30.15,10.0,SSE,5.8,-,N/A,,Overcast,150,2013-01-30 06:30:00
1:53 AM,39.0,37.9,96,30.15,10.0,SSE,6.9,-,N/A,,Overcast,150,2013-01-30 06:53:00
2:08 AM,39.2,37.4,93,30.13,10.0,SSE,8.1,-,N/A,,Overcast,150,2013-01-30 07:08:00
2:53 AM,39.0,37.9,96,30.11,10.0,SSE,11.5,-,N/A,,Overcast,150,2013-01-30 07:53:00
3:53 AM,39.9,37.9,93,30.07,10.0,SSE,11.5,-,N/A,,Overcast,160,2013-01-30 08:53:00
4:53 AM,39.9,37.9,93,30.04,10.0,SSE,12.7,-,N/A,,Mostly Cloudy,150,2013-01-30 09:53:00
5:01 AM,39.2,37.4,93,30.04,10.0,SSE,11.5,-,N/A,,Scattered Clouds,160,2013-01-30 10:01:00
5:53 AM,39.9,39.0,97,30.04,10.0,SSE,11.5,-,N/A,,Scattered Clouds,160,2013-01-30 10:53:00
6:03 AM,41.0,39.2,93,30.04,10.0,South,10.4,-,N/A,,Mostly Cloudy,170,2013-01-30 11:03:00
6:53 AM,42.1,41.0,96,30.02,10.0,SSE,13.8,-,N/A,,Overcast,150,2013-01-30 11:53:00
7:53 AM,45.0,44.1,97,29.99,10.0,SSE,12.7,-,N/A,,Overcast,160,2013-01-30 12:53:00
8:53 AM,48.9,46.9,93,29.96,10.0,South,16.1,-,0.01,,Mostly Cloudy,190,2013-01-30 13:53:00
9:00 AM,48.2,46.4,93,29.96,10.0,South,18.4,25.3,N/A,,Clear,190,2013-01-30 14:00:00
9:53 AM,52.0,48.9,89,29.93,9.0,South,20.7,-,N/A,,Clear,180,2013-01-30 14:53:00
10:53 AM,51.1,50.0,96,29.91,7.0,South,15.0,25.3,N/A,,Mostly Cloudy,190,2013-01-30 15:53:00
11:53 AM,55.0,52.0,89,29.86,8.0,South,21.9,32.2,N/A,,Mostly Cloudy,190,2013-01-30 16:53:00
12:53 PM,55.9,52.0,87,29.80,7.0,SSW,19.6,33.4,N/A,,Mostly Cloudy,200,2013-01-30 17:53:00
1:00 PM,55.4,51.8,88,29.79,7.0,SSW,20.7,29.9,N/A,,Scattered Clouds,200,2013-01-30 18:00:00
1:07 PM,55.4,51.8,88,29.79,7.0,SSW,19.6,32.2,N/A,,Mostly Cloudy,200,2013-01-30 18:07:00
1:53 PM,55.9,53.1,90,29.78,7.0,SSW,17.3,28.8,N/A,,Mostly Cloudy,210,2013-01-30 18:53:00
2:20 PM,53.6,51.8,94,29.78,6.0,SSW,19.6,25.3,N/A,,Overcast,210,2013-01-30 19:20:00
2:53 PM,53.1,52.0,96,29.78,1.5,SSW,17.3,27.6,N/A,,Overcast,210,2013-01-30 19:53:00
3:08 PM,51.8,51.8,100,29.77,0.5,SSW,16.1,24.2,N/A,Fog,Fog,200,2013-01-30 20:08:00
3:17 PM,53.6,53.6,100,29.77,0.2,SSW,15.0,23.0,N/A,Fog,Fog,210,2013-01-30 20:17:00
3:21 PM,53.6,53.6,100,29.76,0.5,SSW,19.6,26.5,N/A,Fog,Fog,210,2013-01-30 20:21:00
3:39 PM,53.6,53.6,100,29.76,0.2,SW,18.4,-,N/A,Fog,Fog,220,2013-01-30 20:39:00
3:53 PM,52.0,52.0,100,29.76,0.2,SSW,12.7,-,N/A,Fog,Fog,210,2013-01-30 20:53:00
4:18 PM,51.8,51.8,100,29.75,0.2,SSW,17.3,23.0,N/A,Fog,Fog,200,2013-01-30 21:18:00
4:33 PM,50.0,50.0,100,29.75,0.2,SSW,16.1,24.2,N/A,Fog,Fog,210,2013-01-30 21:33:00
4:53 PM,50.0,50.0,100,29.75,0.2,SSW,16.1,-,N/A,Fog,Fog,200,2013-01-30 21:53:00
5:06 PM,48.2,48.2,100,29.75,0.2,SSW,11.5,-,N/A,Fog,Fog,200,2013-01-30 22:06:00
5:31 PM,48.2,48.2,100,29.75,0.2,SSW,12.7,-,N/A,Fog,Fog,200,2013-01-30 22:31:00
5:43 PM,48.2,48.2,100,29.75,0.5,SSW,12.7,-,N/A,Fog,Fog,200,2013-01-30 22:43:00
5:53 PM,48.9,48.9,100,29.75,0.5,SSW,12.7,-,N/A,Fog,Fog,200,2013-01-30 22:53:00
6:39 PM,51.8,51.8,100,29.72,1.0,SSW,16.1,25.3,N/A,,Mist,200,2013-01-30 23:39:00
6:53 PM,53.1,53.1,100,29.72,2.5,SSW,17.3,25.3,N/A,,Overcast,200,2013-01-30 23:53:00
7:02 PM,53.6,53.6,100,29.71,3.0,SSW,15.0,24.2,N/A,,Overcast,200,2013-01-31 00:02:00
7:53 PM,53.1,53.1,100,29.68,6.0,SSW,23.0,33.4,N/A,,Overcast,200,2013-01-31 00:53:00
8:08 PM,53.6,53.6,100,29.68,6.0,SSW,18.4,28.8,N/A,,Overcast,200,2013-01-31 01:08:00
8:26 PM,53.6,53.6,100,29.67,6.0,SSW,21.9,31.1,N/A,,Overcast,200,2013-01-31 01:26:00
8:53 PM,53.1,53.1,100,29.67,6.0,SSW,23.0,34.5,N/A,,Overcast,200,2013-01-31 01:53:00
9:12 PM,53.6,53.6,100,29.65,5.0,SSW,17.3,26.5,N/A,,Overcast,200,2013-01-31 02:12:00
9:53 PM,53.1,53.1,100,29.63,5.0,SSW,19.6,27.6,N/A,,Overcast,200,2013-01-31 02:53:00
10:53 PM,53.1,53.1,100,29.61,5.0,South,21.9,-,N/A,,Overcast,190,2013-01-31 03:53:00
11:53 PM,53.1,52.0,96,29.57,5.0,South,24.2,34.5,N/A,,Overcast,190,2013-01-31 04:53:00